| time (UTC) | temp C | wind direction | speed KPH | gust KPH | rain 1hr cm | rain 24hr cm | rain mn cm | humidity % | barometer mb |
| 20260504174517 | 22 | 265 | 4.8 | 8.0 | 0.00 | 0.00 | 0.00 | 31 | 1012.1 |
| 20260504174017 | 22 | 214 | 3.2 | 8.0 | 0.00 | 0.00 | 0.00 | 32 | 1012.1 |
| 20260504173517 | 22 | 253 | 9.7 | 17.7 | 0.00 | 0.00 | 0.00 | 32 | 1012.2 |
| 20260504173017 | 22 | 251 | 3.2 | 8.0 | 0.00 | 0.00 | 0.00 | 32 | 1012.3 |
| 20260504172518 | 22 | 249 | 9.7 | 17.7 | 0.00 | 0.00 | 0.00 | 32 | 1012.4 |
| 20260504172017 | 22 | 208 | 3.2 | 6.4 | 0.00 | 0.00 | 0.00 | 32 | 1012.4 |
| 20260504171518 | 22 | 240 | 6.4 | 11.3 | 0.00 | 0.00 | 0.00 | 33 | 1012.4 |
| 20260504171018 | 21 | 217 | 8.0 | 17.7 | 0.00 | 0.00 | 0.00 | 33 | 1012.4 |
| 20260504170518 | 22 | 249 | 9.7 | 19.3 | 0.00 | 0.00 | 0.00 | 33 | 1012.5 |
| 20260504151019 | 19 | 188 | 3.2 | 9.7 | 0.00 | 0.00 | 0.00 | 41 | 1014.0 |
| 20260504150517 | 19 | 243 | 4.8 | 9.7 | 0.00 | 0.00 | 0.00 | 41 | 1014.0 |
| 20260504141017 | 17 | 218 | 4.8 | 8.0 | 0.00 | 0.00 | 0.00 | 50 | 1014.1 |
| 20260504140519 | 17 | 246 | 6.4 | 12.9 | 0.00 | 0.00 | 0.00 | 50 | 1014.2 |
| 20260504130517 | 15 | 249 | 9.7 | 17.7 | 0.00 | 0.00 | 0.00 | 60 | 1014.7 |
| 20260504110518 | 11 | 268 | 1.6 | 3.2 | 0.00 | 0.00 | 0.00 | 74 | 1015.1 |
| 20260504100518 | 10 | 257 | 6.4 | 9.7 | 0.00 | 0.00 | 0.00 | 71 | 1015.2 |
| 20260504081517 | 10 | 247 | 3.2 | 6.4 | 0.00 | 0.00 | 0.00 | 63 | 1015.0 |
| 20260504081017 | 10 | 285 | 3.2 | 6.4 | 0.00 | 0.00 | 0.00 | 63 | 1014.9 |
| 20260504080517 | 10 | 264 | 4.8 | 11.3 | 0.00 | 0.00 | 0.00 | 62 | 1015.0 |
| 20260504050517 | 12 | 292 | 1.6 | 3.2 | 0.00 | 0.00 | 0.00 | 52 | 1014.5 |
| 20260504050017 | 12 | 303 | 0.0 | 1.6 | 0.00 | 0.00 | 0.00 | 52 | 1014.5 |
| 20260504045517 | 12 | 266 | 3.2 | 6.4 | 0.00 | 0.00 | 0.00 | 52 | 1014.5 |
| 20260504045018 | 12 | 259 | 0.0 | 3.2 | 0.00 | 0.00 | 0.00 | 51 | 1014.5 |
| 20260504044518 | 12 | 262 | 1.6 | 4.8 | 0.00 | 0.00 | 0.00 | 51 | 1014.5 |
| 20260504044017 | 12 | 277 | 3.2 | 8.0 | 0.00 | 0.00 | 0.00 | 50 | 1014.4 |
| 20260504043517 | 12 | 274 | 1.6 | 3.2 | 0.00 | 0.00 | 0.00 | 48 | 1014.4 |
| 20260504043018 | 12 | 269 | 3.2 | 8.0 | 0.00 | 0.00 | 0.00 | 47 | 1014.4 |
| 20260504042517 | 12 | 44 | 1.6 | 3.2 | 0.00 | 0.00 | 0.00 | 46 | 1014.3 |
| 20260504042019 | 12 | 279 | 1.6 | 3.2 | 0.00 | 0.00 | 0.00 | 45 | 1014.3 |
| 20260504041518 | 12 | 277 | 3.2 | 4.8 | 0.00 | 0.00 | 0.00 | 44 | 1014.2 |
| 20260504041018 | 12 | 350 | 1.6 | 4.8 | 0.00 | 0.00 | 0.00 | 44 | 1014.2 |
| 20260504040519 | 13 | 291 | 0.0 | 3.2 | 0.00 | 0.00 | 0.00 | 43 | 1014.1 |
| 20260504040017 | 13 | 255 | 0.0 | 4.8 | 0.00 | 0.00 | 0.00 | 43 | 1014.1 |
| 20260504035519 | 13 | 314 | 1.6 | 3.2 | 0.00 | 0.00 | 0.00 | 43 | 1014.1 |
| 20260504035017 | 13 | 356 | 1.6 | 4.8 | 0.00 | 0.00 | 0.00 | 43 | 1014.0 |
| 20260504034518 | 13 | 314 | 0.0 | 0.0 | 0.00 | 0.00 | 0.00 | 42 | 1014.0 |
| 20260504034018 | 13 | 283 | 1.6 | 4.8 | 0.00 | 0.00 | 0.00 | 41 | 1014.0 |
| 20260504033517 | 13 | 354 | 1.6 | 3.2 | 0.00 | 0.00 | 0.00 | 42 | 1013.9 |
| 20260504033018 | 13 | 273 | 3.2 | 4.8 | 0.00 | 0.00 | 0.00 | 41 | 1013.9 |
| 20260504032518 | 13 | 329 | 1.6 | 4.8 | 0.00 | 0.00 | 0.00 | 40 | 1013.9 |
| 20260504032018 | 13 | 258 | 3.2 | 4.8 | 0.00 | 0.00 | 0.00 | 41 | 1013.9 |
| 20260504031517 | 13 | 254 | 1.6 | 4.8 | 0.00 | 0.00 | 0.00 | 40 | 1013.9 |
| 20260504031018 | 13 | 42 | 0.0 | 3.2 | 0.00 | 0.00 | 0.00 | 40 | 1013.8 |
| 20260504030517 | 13 | 30 | 0.0 | 3.2 | 0.00 | 0.00 | 0.00 | 40 | 1013.8 |
| 20260504030017 | 13 | 316 | 0.0 | 1.6 | 0.00 | 0.00 | 0.00 | 39 | 1013.8 |
| 20260504025517 | 13 | 280 | 3.2 | 9.7 | 0.00 | 0.00 | 0.00 | 39 | 1013.9 |
| 20260504025018 | 14 | 21 | 1.6 | 4.8 | 0.00 | 0.00 | 0.00 | 38 | 1013.9 |
| 20260504024517 | 14 | 3 | 3.2 | 8.0 | 0.00 | 0.00 | 0.00 | 38 | 1013.9 |
| 20260504024017 | 14 | 326 | 1.6 | 4.8 | 0.00 | 0.00 | 0.00 | 38 | 1013.9 |
| 20260504023517 | 14 | 317 | 3.2 | 6.4 | 0.00 | 0.00 | 0.00 | 38 | 1013.9 |
| 20260504023017 | 14 | 294 | 3.2 | 6.4 | 0.00 | 0.00 | 0.00 | 38 | 1013.9 |
| 20260504022517 | 14 | 336 | 1.6 | 4.8 | 0.00 | 0.00 | 0.00 | 38 | 1013.9 |
| 20260504022018 | 14 | 335 | 1.6 | 4.8 | 0.00 | 0.00 | 0.00 | 38 | 1013.9 |
| 20260504021517 | 14 | 269 | 3.2 | 11.3 | 0.00 | 0.00 | 0.00 | 38 | 1013.9 |
| 20260504021017 | 14 | 321 | 1.6 | 3.2 | 0.00 | 0.00 | 0.00 | 38 | 1013.9 |
| 20260504020518 | 14 | 23 | 1.6 | 4.8 | 0.00 | 0.00 | 0.00 | 38 | 1013.8 |
| 20260504020018 | 14 | 347 | 1.6 | 3.2 | 0.00 | 0.00 | 0.00 | 38 | 1013.8 |
| 20260504015517 | 14 | 350 | 1.6 | 4.8 | 0.00 | 0.00 | 0.00 | 38 | 1013.8 |
| 20260504015018 | 14 | 281 | 1.6 | 4.8 | 0.00 | 0.00 | 0.00 | 38 | 1013.8 |
| 20260504014517 | 14 | 288 | 1.6 | 6.4 | 0.00 | 0.00 | 0.00 | 37 | 1013.8 |
| 20260504014017 | 14 | 277 | 1.6 | 4.8 | 0.00 | 0.00 | 0.00 | 37 | 1013.7 |
| 20260504013518 | 14 | 289 | 1.6 | 4.8 | 0.00 | 0.00 | 0.00 | 37 | 1013.7 |
| 20260504013018 | 14 | 292 | 3.2 | 6.4 | 0.00 | 0.00 | 0.00 | 37 | 1013.6 |
| 20260504012518 | 14 | 301 | 3.2 | 6.4 | 0.00 | 0.00 | 0.00 | 37 | 1013.6 |
| 20260504012017 | 14 | 232 | 1.6 | 4.8 | 0.00 | 0.00 | 0.00 | 37 | 1013.6 |
| 20260504011517 | 14 | 231 | 1.6 | 4.8 | 0.00 | 0.00 | 0.00 | 37 | 1013.5 |
| 20260504011020 | 14 | 290 | 3.2 | 6.4 | 0.00 | 0.00 | 0.00 | 37 | 1013.4 |
| 20260504010518 | 14 | 236 | 3.2 | 6.4 | 0.00 | 0.00 | 0.00 | 37 | 1013.3 |
| 20260504005528 | 14 | 81 | 0.0 | 3.2 | 0.00 | 0.00 | 0.00 | 37 | 1013.2 |
| 20260504005018 | 15 | 295 | 1.6 | 6.4 | 0.00 | 0.00 | 0.00 | 36 | 1013.2 |
| 20260504004518 | 15 | 288 | 1.6 | 4.8 | 0.00 | 0.00 | 0.00 | 36 | 1013.1 |
| 20260504004017 | 15 | 277 | 0.0 | 3.2 | 0.00 | 0.00 | 0.00 | 36 | 1013.0 |
| 20260504003517 | 15 | 353 | 1.6 | 4.8 | 0.00 | 0.00 | 0.00 | 36 | 1012.9 |
| 20260504003017 | 15 | 264 | 3.2 | 6.4 | 0.00 | 0.00 | 0.00 | 36 | 1012.8 |
| 20260504002517 | 15 | 236 | 1.6 | 3.2 | 0.00 | 0.00 | 0.00 | 36 | 1012.8 |
| 20260504002018 | 15 | 202 | 3.2 | 4.8 | 0.00 | 0.00 | 0.00 | 36 | 1012.8 |
| 20260504001517 | 15 | 320 | 1.6 | 3.2 | 0.00 | 0.00 | 0.00 | 35 | 1012.7 |
| 20260504001017 | 15 | 275 | 3.2 | 6.4 | 0.00 | 0.00 | 0.00 | 35 | 1012.7 |
| 20260504000518 | 15 | 273 | 0.0 | 4.8 | 0.00 | 0.00 | 0.00 | 35 | 1012.7 |
| 20260504000018 | 15 | 348 | 3.2 | 6.4 | 0.00 | 0.00 | 0.00 | 35 | 1012.7 |
| 20260503235517 | 15 | 315 | 1.6 | 6.4 | 0.00 | 0.00 | 0.00 | 35 | 1012.6 |
| 20260503235018 | 15 | 13 | 1.6 | 4.8 | 0.00 | 0.00 | 0.00 | 34 | 1012.6 |
| 20260503234517 | 15 | 66 | 3.2 | 4.8 | 0.00 | 0.00 | 0.00 | 34 | 1012.6 |
| 20260503234017 | 15 | 355 | 3.2 | 8.0 | 0.00 | 0.00 | 0.00 | 34 | 1012.5 |
| 20260503233517 | 15 | 41 | 1.6 | 3.2 | 0.00 | 0.00 | 0.00 | 34 | 1012.4 |
| 20260503233017 | 15 | 0 | 3.2 | 6.4 | 0.00 | 0.00 | 0.00 | 33 | 1012.4 |
| 20260503232517 | 15 | 28 | 1.6 | 6.4 | 0.00 | 0.00 | 0.00 | 33 | 1012.4 |
| 20260503232017 | 16 | 81 | 1.6 | 4.8 | 0.00 | 0.00 | 0.00 | 33 | 1012.4 |
| 20260503231520 | 16 | 28 | 3.2 | 6.4 | 0.00 | 0.00 | 0.00 | 33 | 1012.4 |
| 20260503231017 | 16 | 7 | 1.6 | 6.4 | 0.00 | 0.00 | 0.00 | 32 | 1012.4 |
| 20260503230518 | 16 | 37 | 3.2 | 8.0 | 0.00 | 0.00 | 0.00 | 32 | 1012.3 |
| 20260503230017 | 16 | 52 | 3.2 | 6.4 | 0.00 | 0.00 | 0.00 | 32 | 1012.3 |
| 20260503225517 | 16 | 42 | 3.2 | 4.8 | 0.00 | 0.00 | 0.00 | 32 | 1012.2 |
| 20260503225018 | 16 | 57 | 1.6 | 4.8 | 0.00 | 0.00 | 0.00 | 32 | 1012.2 |
| 20260503224517 | 16 | 7 | 3.2 | 6.4 | 0.00 | 0.00 | 0.00 | 31 | 1012.1 |
| 20260503224017 | 16 | 60 | 4.8 | 9.7 | 0.00 | 0.00 | 0.00 | 31 | 1012.1 |
| 20260503223518 | 16 | 352 | 4.8 | 11.3 | 0.00 | 0.00 | 0.00 | 31 | 1012.1 |
| 20260503223018 | 17 | 38 | 3.2 | 6.4 | 0.00 | 0.00 | 0.00 | 31 | 1012.2 |
| 20260503222517 | 17 | 260 | 3.2 | 6.4 | 0.00 | 0.00 | 0.00 | 30 | 1012.2 |
| 20260503222018 | 17 | 15 | 3.2 | 6.4 | 0.00 | 0.00 | 0.00 | 30 | 1012.2 |
| 20260503221517 | 17 | 81 | 3.2 | 6.4 | 0.00 | 0.00 | 0.00 | 30 | 1012.2 |
| 20260503221017 | 17 | 78 | 1.6 | 4.8 | 0.00 | 0.00 | 0.00 | 30 | 1012.1 |
| 20260503220518 | 17 | 20 | 3.2 | 8.0 | 0.00 | 0.00 | 0.00 | 30 | 1012.2 |
| 20260503220017 | 17 | 37 | 3.2 | 11.3 | 0.00 | 0.00 | 0.00 | 30 | 1012.1 |
| 20260503215517 | 17 | 149 | 4.8 | 9.7 | 0.00 | 0.00 | 0.00 | 29 | 1012.2 |
| 20260503215017 | 17 | 7 | 4.8 | 8.0 | 0.00 | 0.00 | 0.00 | 29 | 1012.2 |
| 20260503214517 | 16 | 38 | 1.6 | 4.8 | 0.00 | 0.00 | 0.00 | 30 | 1012.2 |
| 20260503214017 | 17 | 43 | 3.2 | 4.8 | 0.00 | 0.00 | 0.00 | 30 | 1012.2 |
| 20260503213519 | 17 | 89 | 3.2 | 6.4 | 0.00 | 0.00 | 0.00 | 30 | 1012.2 |
| 20260503213017 | 17 | 316 | 3.2 | 6.4 | 0.00 | 0.00 | 0.00 | 30 | 1012.1 |
| 20260503212517 | 16 | 105 | 1.6 | 3.2 | 0.00 | 0.00 | 0.00 | 31 | 1012.1 |
| 20260503212017 | 16 | 50 | 4.8 | 9.7 | 0.00 | 0.00 | 0.00 | 30 | 1012.1 |
| 20260503211517 | 16 | 52 | 4.8 | 11.3 | 0.00 | 0.00 | 0.00 | 30 | 1012.2 |
| 20260503211017 | 16 | 49 | 4.8 | 9.7 | 0.00 | 0.00 | 0.00 | 30 | 1012.2 |
| 20260503210518 | 16 | 43 | 3.2 | 6.4 | 0.00 | 0.00 | 0.00 | 30 | 1012.2 |
| 20260503210017 | 16 | 59 | 6.4 | 14.5 | 0.00 | 0.00 | 0.00 | 31 | 1012.3 |
| 20260503205517 | 17 | 12 | 4.8 | 9.7 | 0.00 | 0.00 | 0.00 | 30 | 1012.3 |
| 20260503205017 | 16 | 32 | 3.2 | 8.0 | 0.00 | 0.00 | 0.00 | 31 | 1012.3 |
| 20260503204517 | 16 | 44 | 1.6 | 4.8 | 0.00 | 0.00 | 0.00 | 31 | 1012.3 |
| 20260503204018 | 16 | 42 | 6.4 | 9.7 | 0.00 | 0.00 | 0.00 | 31 | 1012.3 |
| 20260503203517 | 16 | 108 | 1.6 | 3.2 | 0.00 | 0.00 | 0.00 | 31 | 1012.3 |
| 20260503203018 | 16 | 34 | 6.4 | 14.5 | 0.00 | 0.00 | 0.00 | 31 | 1012.4 |
| 20260503202518 | 16 | 50 | 4.8 | 8.0 | 0.00 | 0.00 | 0.00 | 31 | 1012.3 |
| 20260503202020 | 16 | 51 | 4.8 | 12.9 | 0.00 | 0.00 | 0.00 | 31 | 1012.5 |
| 20260503201517 | 16 | 26 | 3.2 | 8.0 | 0.00 | 0.00 | 0.00 | 30 | 1012.5 |
| 20260503201017 | 16 | 46 | 9.7 | 16.1 | 0.00 | 0.00 | 0.00 | 31 | 1012.6 |
| 20260503200518 | 16 | 66 | 4.8 | 6.4 | 0.00 | 0.00 | 0.00 | 31 | 1012.5 |
| 20260503200018 | 16 | 48 | 4.8 | 8.0 | 0.00 | 0.00 | 0.00 | 31 | 1012.5 |
| 20260503195517 | 16 | 41 | 4.8 | 11.3 | 0.00 | 0.00 | 0.00 | 31 | 1012.5 |
| 20260503195017 | 16 | 41 | 4.8 | 8.0 | 0.00 | 0.00 | 0.00 | 31 | 1012.5 |
| 20260503194518 | 16 | 48 | 9.7 | 14.5 | 0.00 | 0.00 | 0.00 | 30 | 1012.6 |
| 20260503194017 | 16 | 55 | 6.4 | 14.5 | 0.00 | 0.00 | 0.00 | 30 | 1012.6 |
| 20260503193517 | 16 | 52 | 3.2 | 9.7 | 0.00 | 0.00 | 0.00 | 30 | 1012.6 |
| 20260503193017 | 16 | 58 | 3.2 | 6.4 | 0.00 | 0.00 | 0.00 | 30 | 1012.7 |
| 20260503192517 | 16 | 42 | 6.4 | 11.3 | 0.00 | 0.00 | 0.00 | 30 | 1012.6 |
| 20260503192018 | 15 | 49 | 4.8 | 9.7 | 0.00 | 0.00 | 0.00 | 31 | 1012.8 |
| 20260503191517 | 15 | 51 | 6.4 | 16.1 | 0.00 | 0.00 | 0.00 | 31 | 1012.9 |
| 20260503191018 | 15 | 40 | 3.2 | 9.7 | 0.00 | 0.00 | 0.00 | 32 | 1012.8 |
| 20260503190517 | 15 | 51 | 6.4 | 12.9 | 0.00 | 0.00 | 0.00 | 32 | 1013.0 |
| 20260503190018 | 15 | 27 | 4.8 | 11.3 | 0.00 | 0.00 | 0.00 | 32 | 1013.0 |
| 20260503185517 | 15 | 75 | 4.8 | 9.7 | 0.00 | 0.00 | 0.00 | 32 | 1013.1 |
| 20260503185017 | 15 | 58 | 4.8 | 9.7 | 0.00 | 0.00 | 0.00 | 32 | 1013.0 |
| 20260503184517 | 15 | 41 | 6.4 | 11.3 | 0.00 | 0.00 | 0.00 | 32 | 1013.1 |
| 20260503184017 | 15 | 323 | 3.2 | 11.3 | 0.00 | 0.00 | 0.00 | 32 | 1013.1 |
| 20260503183517 | 14 | 51 | 4.8 | 8.0 | 0.00 | 0.00 | 0.00 | 33 | 1013.3 |
| 20260503183017 | 15 | 56 | 8.0 | 12.9 | 0.00 | 0.00 | 0.00 | 31 | 1013.3 |
| 20260503182518 | 15 | 21 | 6.4 | 14.5 | 0.00 | 0.00 | 0.00 | 32 | 1013.4 |
| 20260503182017 | 14 | 313 | 3.2 | 8.0 | 0.00 | 0.00 | 0.00 | 32 | 1013.3 |
| 20260503181517 | 14 | 32 | 3.2 | 6.4 | 0.00 | 0.00 | 0.00 | 33 | 1013.1 |
| 20260503181017 | 13 | 41 | 6.4 | 11.3 | 0.00 | 0.00 | 0.00 | 32 | 1013.3 |
| 20260503180517 | 13 | 39 | 9.7 | 12.9 | 0.00 | 0.00 | 0.00 | 33 | 1013.4 |
| 20260503180018 | 13 | 32 | 6.4 | 12.9 | 0.00 | 0.00 | 0.00 | 34 | 1013.3 |
| 20260503175517 | 13 | 44 | 4.8 | 6.4 | 0.00 | 0.00 | 0.00 | 34 | 1013.5 |
| 20260503175018 | 13 | 52 | 6.4 | 9.7 | 0.00 | 0.00 | 0.00 | 33 | 1013.5 |